Regional Weather Roundup
Issued by NWS

Home | Current Version | Previous Version | Graphics & Text | Print | Product List | Glossary On
Versions: 1 2 3 4 5 6 7 8 9 10 11 12 13 14 15 16 17 18 19 20 21 22 23 24 25 26 27 28 29 30 31 32 33 34 35 36 37 38 39 40 41 42 43 44 45 46 47 48 49 50
000
ASUS43 KBIS 211720
RWRND

NORTH DAKOTA REGIONAL WEATHER ROUNDUP
NATIONAL WEATHER SERVICE BISMARCK ND
1200 PM CDT SUN SEP 21 2014

NOTE: "FAIR" INDICATES FEW OR NO CLOUDS BELOW 12,000 FEET WITH NO
SIGNIFICANT WEATHER AND/OR OBSTRUCTIONS TO VISIBILITY.


NDZ001>003-009>011-017-211800-
NORTHWEST NORTH DAKOTA

CITY           SKY/WX    TMP DP  RH WIND       PRES   REMARKS
WILLISTON      SUNNY     62  42  47 S7        30.29F
MINOT          SUNNY     64  43  46 W5        30.26S
MINOT AFB      SUNNY     64  46  51 NW6       30.26S
$$

NDZ018>021-031>035-040>046-211800-
SOUTHWEST NORTH DAKOTA

CITY           SKY/WX    TMP DP  RH WIND       PRES   REMARKS
BISMARCK       SUNNY     66  47  50 VRB3      30.30S
DICKINSON      SUNNY     66  39  37 NW8       30.31R
GARRISON         N/A     65  45  48 VRB3      30.28S
HETTINGER ARPT SUNNY     65  38  36 W5        30.33S
$$

NDZ004>008-012>016-024-026-027-054-211800-
NORTHEAST NORTH DAKOTA

CITY           SKY/WX    TMP DP  RH WIND       PRES   REMARKS
GRAND FORKS    PTSUNNY   59  52  77 N13       30.23S
GRND FRKS AFB  MOSUNNY   61  53  74 N9        30.24R
DEVILS LAKE    MOSUNNY   61  48  63 N6        30.23S
$$

NDZ022-023-025-028>030-036>039-047>053-211800-
SOUTHEAST NORTH DAKOTA

CITY           SKY/WX    TMP DP  RH WIND       PRES   REMARKS
FARGO          CLOUDY    60  52  74 N7        30.23R
JAMESTOWN      SUNNY     62  51  67 NW8       30.26R
$$




USA.gov is the U.S. government's official web portal to all federal, state and local government web resources and services.